Tracking 29892 objects as of 21-Nov-2024
HD Live streaming from Space Station
objects crossing your sky now

THORAD DELTA 1 DEB

Track THORAD DELTA 1 DEB now!
10-day predictions


NORAD ID: 8563
Int'l Code: 1974-089DA
Perigee: 1,392.7 km
Apogee: 1,522.1 km
Inclination: 101.4 °
Period: 114.9 minutes
Semi major axis: 7828 km
RCS: 0.0458 m2 (small)
Launch date: November 15, 1974
Source: United States (US)
Launch site: AIR FORCE WESTERN TEST RANGE (AFWTR)

Note: This is SATELLITE DEBRIS
Your satellite tracking list
Your tracking list is empty




NASA's NSSDC Master Catalog

Two Line Element Set (TLE):
1 08563U 74089DA  24325.24281654  .00000297  00000-0  21141-2 0  9997
2 08563 101.3989  71.1110 0082647 234.2109 154.6283 12.53421438284189
Source of the keplerian elements: AFSPC